Location: Oregon Trail
(41.1872°N, 102.0741°W)
Time: 08:45:30
(UTC+00:00)

H-2A R/B - Pass Details

Date: 19 November 2019
Orbit: 270 x 32819 km, 28.3° (Epoch: 06 December)

Event Time Altitude Azimuth Distance (km) Brightness Sun altitude
Rises 13:05:58 0° 230° (SW) 2,230 4.1 -6.9°
Reaches altitude 10° 13:07:36 10° 209° (SSW) 1,742 3.8 -6.6°
Maximum altitude 13:10:28 21° 156° (SSE) 1,880 4.7 -6.1°
Drops below altitude 10° 13:17:49 10° 111° (ESE) 4,930 8.1 -4.8°
Sets 13:28:35 0° 102° (ESE) 9,392 9.7 -2.9°
